SCP
0 0 0 0 0 0 0 -0 -0 0 0 0 0 0 0 0 0 0 0 0 0 0 0 0 0 0 0 0 0 0 0 0 0 0 0 0 0 0 0 0 0 0 0 0
0 0 0 0 0 0 -0 -0 -0 0 0 0 0 0 0 0 0 0 0 0 0 0 0 0 0 0 0 0 0 0 0 0 0 0 0 0 0 0 0 0 0 0 0 0
0 0 0 0 0 0 -0 -0 -0 0 0 0 0 0 0 0 0 0 0 0 0 0 0 0 0 0 0 0 0 0 0 0 0 0 0 0 0 0 0 0 1 0 0 0
0 0 0 0 0 0 -0 -0 0 0 0 0 0 0 0 0 0 0 0 0 0 0 0 0 0 0 0 0 0 0 0 0 0 0 0 0 0 0 0 0 0 0 0 0
0 0 0 0 0 0 0 0 0 0 0 0 0 0 0 0 0 0 0 0 0 0 0 0 0 0 0 0 0 0 0 0 0 0 0 0 0 0 0 0 0 0 0 0
0 0 0 0 0 0 0 0 0 0 0 0 0 0 0 0 0 0 0 0 0 0 0 0 0 0 0 0 0 0 0 0 0 0 0 0 0 0 0 -0 -0 0 0 0
0 0 0 0 0 0 0 0 0 0 0 0 0 0 0 0 0 0 0 0 0 0 0 0 0 0 0 0 0 0 -0 -0 0 0 0 0 0 0 0 0 0 0 0 -0
0 0 0 0 0 0 0 0 0 0 0 0 0 0 0 0 0 0 0 0 0 0 0 0 0 0 0 -0 0 0 0 0 0 0 0 0 0 0 0 0 0 0 0 0
0 0 0 0 0 0 0 0 0 0 0 0 0 0 0 0 0 0 0 0 0 0 0 0 0 0 0 0 0 0 0 0 0 0 0 0 0 0 0 0 0 0 0 0
0 0 0 0 0 0 0 0 0 0 0 0 0 0 0 0 0 0 0 0 0 0 0 0 0 0 0 0 0 0 0 0 0 0 0 0 0 0 0 0 0 0 0 0
0 0 0 0 0 0 0 0 0 0 0 0 0 0 0 0 0 0 0 0 0 0 0 0 0 0 0 0 0 0 0 0 0 0 0 0 0 0 -0 0 0 0 0 0
0 0 0 0 0 0 0 0 0 0 0 0 0 0 -0 -0 -0 0 0 0 0 0 0 0 0 0 0 0 0 0 0 0 0 0 0 0 -0 -0 -0 -0 -0 0 0 0
0 0 0 0 0 0 0 0 0 0 0 0 0 0 -0 0 0 0 0 0 0 0 0 0 0 0 0 0 0 0 -0 0 0 0 0 0 0 -0 -0 0 0 0 0 0
0 0 0 0 0 0 0 0 0 0 0 0 0 0 0 0 0 0 0 -0 0 0 0 0 0 0 0 0 -0 -0 0 0 0 -0 -0 0 0 0 0 0 0 0 0 0
0 0 0 0 0 0 0 0 0 0 0 0 0 0 0 0 0 0 0 0 0 0 0 0 0 -0 -0 -0 -0 -0 0 0 0 0 -0 -0 0 0 -0 -0 0 0 0 0
0 0 0 0 0 0 0 0 0 0 0 0 0 0 0 0 0 0 0 0 0 0 0 -0 0 -0 0 0 -0 -0 0 0 0 0 0 0 0 -0 0 -0 0 0 -0 -0
0 0 0 0 0 0 0 0 0 0 0 0 0 0 0 0 0 0 0 0 0 0 -0 -0 -0 0 0 0 0 -0 -0 -0 -0 0 -0 -0 0 -0 -0 -0 -0 -0 -0 -0
0 0 0 0 0 0 0 0 0 0 0 0 0 0 0 0 0 0 0 0 -0 -0 -0 0 0 0 0 0 0 -0 -0 -0 0 0 0 -0 -0 -0 -0 0 0 0 0 0
0 0 0 0 0 0 0 0 0 0 0 0 0 0 0 0 0 -0 -0 -0 0 0 0 0 0 0 0 0 -0 -0 0 0 0 0 0 -0 -0 -0 0 -0 -0 -0 0 0
0 0 0 0 0 0 0 0 0 0 0 0 0 0 -0 0 0 -0 -0 -0 -0 0 0 0 0 0 0 0 0 0 0 -0 0 -0 -0 0 0 0 -0 -0 -0 -0 -0 -0
0 0 0 0 0 0 0 0 0 0 0 0 0 0 0 0 0 0 0 0 0 -0 0 -0 0 0 0 0 0 0 -0 -0 -0 -0 0 0 0 0 0 -0 -0 -0 -0 -0
0 0 0 0 0 0 0 0 0 0 0 0 0 0 0 0 -0 0 0 0 -0 0 0 0 -0 0 -0 0 -0 -0 -0 -0 -0 -0 0 0 0 0 0 -0 -0 0 0 0
0 0 0 0 0 0 0 0 0 0 0 0 0 0 0 -0 -0 0 0 -0 0 -0 0 0 0 0 0 -0 -0 -0 -0 -0 -0 -0 0 0 -0 0 0 0 0 0 0 0
0 0 0 0 0 -0 0 0 0 0 0 0 0 0 0 0 0 0 0 0 0 0 -0 0 0 -0 -0 -0 -0 0 0 0 0 0 0 0 0 0 0 0 0 0 0 0
0 0 0 -0 0 0 0 0 0 0 0 0 0 0 0 0 0 0 0 0 0 0 -0 0 -0 -0 -0 -0 -0 0 0 0 0 0 0 0 0 0 0 0 0 0 0 0
0 0 -0 0 0 0 -0 0 0 0 0 0 0 0 0 0 0 0 0 0 0 -0 0 0 -0 -0 -0 -0 -0 0 0 0 0 0 0 0 0 0 0 0 0 0 0 0
0 -0 -0 -0 -0 -0 0 0 0 0 0 0 0 0 0 0 0 0 0 0 0 -0 -0 -0 0 -0 -0 -0 0 0 0 0 0 0 0 0 0 0 0 0 0 0 0 0
Wind_Speed_500mb
56 55 57 62 65 63 50 21 5 36 12 4 5 3 8 12 15 19 8 13 14 16 15 23 27 26 23 22 31 28 17 13 30 37 34 29 35 43 35 26 34 35 37 41
52 53 52 55 55 55 52 25 11 21 22 4 7 7 5 7 16 15 10 8 8 10 16 15 21 20 13 30 28 21 21 16 26 39 36 35 33 51 45 46 32 46 40 41
48 50 50 49 47 40 30 16 8 11 23 16 10 11 4 6 11 4 11 15 12 16 20 20 18 22 20 21 38 29 17 30 36 36 46 42 39 42 49 46 32 51 42 59
48 48 47 44 40 34 19 13 8 6 7 8 11 7 5 9 5 5 12 8 9 15 13 25 31 22 33 42 35 40 11 37 37 48 50 41 37 40 48 47 56 55 55 52
44 45 46 41 38 30 14 10 11 8 14 7 11 2 4 10 5 9 10 11 9 18 26 29 40 37 31 27 22 27 29 32 29 50 45 46 48 47 47 47 51 39 51 54
41 40 40 38 35 27 11 9 9 7 1 4 9 5 5 7 14 12 18 20 24 29 30 27 34 42 49 49 40 38 37 34 34 52 37 44 44 44 48 53 46 49 46 54
35 35 36 35 31 24 12 8 6 10 8 6 9 8 14 18 16 24 30 28 29 18 22 42 47 57 59 57 52 54 45 43 33 33 37 46 40 47 45 54 45 44 45 53
29 29 33 32 28 22 14 10 7 9 13 12 13 4 12 23 24 27 32 33 24 21 37 23 17 17 25 29 36 32 35 36 24 23 30 44 60 45 18 32 34 16 30 25
26 25 24 24 25 25 13 10 7 8 17 5 4 13 18 15 17 20 24 18 24 15 19 13 18 21 25 12 12 12 8 14 20 19 15 17 14 20 39 18 23 24 34 23
24 19 18 15 16 21 14 10 14 9 17 13 7 16 13 13 15 14 27 11 8 7 11 15 21 22 14 14 17 20 20 21 25 24 24 9 11 29 35 11 8 29 37 32
22 19 17 15 15 19 12 15 17 9 15 33 31 19 23 21 17 13 11 16 12 10 7 8 12 12 13 15 24 27 31 21 25 19 25 24 9 12 4 23 44 43 46 47
20 17 17 15 18 19 15 15 23 25 27 43 50 55 57 52 44 34 16 16 10 6 9 7 6 14 15 26 27 21 17 8 16 15 21 47 45 31 37 38 47 45 45 42
22 21 21 17 20 21 20 23 24 28 27 58 21 16 12 23 37 39 32 22 15 8 11 11 7 14 15 17 20 28 30 34 21 31 28 36 60 46 33 25 41 44 45 50
23 20 18 18 18 14 18 20 22 19 16 14 5 7 20 19 23 32 52 35 11 14 17 12 9 10 15 15 22 28 35 37 31 40 44 44 36 46 54 56 57 48 51 53
16 16 18 21 17 22 26 26 28 27 19 15 35 44 8 2 19 31 37 44 40 31 17 10 11 21 18 27 27 23 22 21 13 23 52 51 59 65 71 67 49 38 33 40
18 19 18 17 19 25 21 11 6 3 16 11 9 18 13 8 14 23 31 34 35 34 12 14 14 29 13 8 16 31 18 27 40 25 45 60 59 54 32 40 44 35 36 45
23 23 23 26 28 21 15 10 3 4 9 8 14 10 5 11 12 16 21 28 24 23 13 16 28 18 15 7 23 33 36 38 43 35 35 31 22 29 37 36 32 41 46 45
23 26 28 29 28 29 33 30 37 30 17 10 7 9 11 3 9 9 12 12 22 17 13 8 12 8 12 8 15 39 38 40 32 31 34 34 33 31 32 31 37 41 42 44
26 31 30 25 13 14 10 23 26 33 24 7 10 8 10 6 14 13 8 15 10 13 11 9 5 5 8 10 33 41 41 32 37 43 39 35 34 33 33 32 35 43 47 51
27 17 6 6 9 15 13 10 9 22 18 15 13 27 19 18 12 8 6 11 6 5 8 7 5 1 14 22 32 38 39 39 40 42 45 46 41 36 33 28 33 46 51 60
8 4 4 9 15 5 6 9 13 14 9 15 13 21 17 10 9 6 5 6 1 5 5 4 2 2 11 33 37 36 34 34 38 40 43 41 36 36 34 36 35 47 53 57
10 11 19 11 8 11 9 7 11 8 7 12 8 11 16 11 10 10 9 5 5 3 6 3 4 3 31 37 41 40 38 38 37 37 38 37 32 28 29 33 37 38 45 46
10 6 7 8 10 9 11 12 8 8 8 6 7 7 12 13 13 11 6 6 2 5 2 5 6 29 35 38 40 43 43 39 34 33 32 32 30 28 27 31 32 31 37 38
7 8 8 10 10 11 9 10 6 4 4 9 12 14 8 11 10 5 7 0 5 4 5 8 13 34 36 40 39 40 40 34 32 30 30 32 35 34 32 33 29 33 35 41
7 7 8 11 16 12 12 14 5 4 12 13 18 12 11 8 6 1 5 4 4 4 7 9 25 33 33 37 39 36 29 32 33 31 29 31 34 35 35 34 32 33 35 39
7 11 11 18 16 18 7 12 9 7 14 18 10 8 6 5 3 6 1 4 5 3 7 19 25 27 30 34 33 24 25 31 32 31 30 30 32 35 37 37 38 34 36 40
9 14 23 27 25 23 17 10 11 8 14 8 7 6 3 2 4 4 3 6 11 11 13 21 24 25 30 33 24 20 23 30 32 31 32 32 33 34 38 41 41 36 34 34
Wind_Direction_500mb
344 349 353 351 350 354 6 1 302 346 9 235 9 13 357 336 356 2 341 301 309 303 310 291 280 273 268 20 342 312 306 292 278 267 270 271 283 273 256 248 256 249 258 264
343 346 354 354 354 358 356 340 317 350 23 44 44 359 324 6 1 18 8 311 12 351 298 295 269 279 302 348 333 355 337 268 289 275 248 243 244 248 253 255 264 257 259 263
341 345 351 354 355 2 2 337 329 21 48 51 0 358 18 353 23 61 349 314 293 308 283 266 280 290 290 327 315 332 293 261 255 263 275 312 301 282 261 250 236 243 241 262
339 343 348 354 356 6 15 358 38 10 341 51 353 303 329 322 334 340 318 277 257 318 289 304 279 293 314 299 279 279 261 275 277 272 275 279 284 295 301 293 256 251 254 249
336 339 343 351 357 11 33 357 344 324 291 296 301 139 86 327 348 304 308 261 295 295 287 284 290 292 286 284 289 273 274 270 287 277 278 278 275 258 242 255 280 286 283 268
334 336 340 349 359 19 39 14 337 309 221 287 292 40 25 324 316 261 250 294 301 293 298 300 290 282 273 266 272 272 272 269 265 269 282 281 261 255 250 254 240 237 249 261
330 332 337 346 0 18 33 15 349 294 305 273 318 300 297 295 281 273 283 283 278 299 298 302 283 270 264 260 260 253 257 261 269 272 283 265 273 272 271 256 263 273 251 250
326 329 333 341 350 8 26 13 5 310 290 314 288 259 284 291 281 259 271 285 287 290 295 286 281 275 248 248 249 245 232 248 268 258 254 268 278 293 333 302 276 26 359 357
319 325 333 341 348 351 22 349 0 308 303 85 314 295 292 290 303 283 256 270 293 276 275 257 284 308 310 283 293 250 309 270 262 259 260 251 43 344 324 327 276 18 349 331
310 316 323 332 334 337 348 312 357 315 282 283 234 283 315 298 286 273 280 311 294 241 252 269 279 291 340 281 299 318 300 295 279 277 277 276 343 3 342 259 342 320 309 295
308 307 303 316 315 317 312 290 328 301 280 284 267 259 263 272 256 279 2 286 189 235 282 287 310 287 325 298 295 290 289 290 288 303 293 280 209 298 345 295 305 299 297 300
301 304 309 311 304 311 308 291 272 285 255 273 281 273 262 254 252 269 262 292 303 336 251 247 299 276 290 290 287 294 286 268 292 284 296 305 297 273 284 286 286 295 297 297
295 293 285 276 282 287 287 282 307 308 296 304 277 275 286 233 237 232 238 239 231 239 290 304 270 259 282 274 296 308 300 308 294 291 276 301 308 300 290 305 305 297 291 292
294 298 299 292 285 284 275 285 284 278 288 283 304 282 288 284 241 230 223 232 242 271 270 268 257 261 285 280 293 291 290 303 285 285 279 299 301 308 315 315 307 296 292 292
292 299 295 291 273 282 286 286 282 261 236 303 299 303 274 253 213 225 223 228 238 252 250 242 258 265 271 266 270 274 292 303 293 286 313 305 299 306 305 305 304 305 301 299
290 284 284 274 280 294 309 293 270 173 189 275 293 320 285 235 224 226 223 222 227 227 223 239 249 249 266 275 276 292 325 316 313 295 300 299 293 296 310 304 308 302 302 301
280 282 279 282 285 280 246 300 206 241 276 271 288 278 215 266 241 232 223 214 213 217 228 236 249 250 209 262 276 318 324 307 294 302 305 315 315 306 311 312 321 312 302 298
295 291 290 286 279 272 265 260 255 258 258 247 273 279 259 203 260 277 198 194 200 221 237 248 243 223 207 260 314 308 307 309 307 310 319 311 321 323 324 325 324 322 317 314
300 302 300 291 254 240 243 239 243 224 213 242 215 285 330 344 278 287 231 182 209 210 217 225 242 185 209 263 294 300 305 300 300 311 311 317 318 320 325 325 331 330 328 327
315 316 276 247 217 239 255 212 217 195 210 228 250 263 263 306 343 283 282 199 237 232 192 180 230 1 279 309 312 305 310 312 314 315 323 329 324 318 314 311 329 333 335 338
319 265 256 301 294 302 263 235 203 179 219 212 233 246 263 271 253 285 271 305 264 252 91 270 302 152 307 327 327 332 334 335 337 335 333 326 316 308 304 312 312 324 332 337
261 279 282 273 233 227 244 216 173 220 252 172 212 225 221 248 228 242 227 245 218 355 295 336 340 11 328 327 332 330 336 338 344 345 344 338 330 319 306 314 319 327 331 340
284 241 241 207 198 235 233 207 204 198 187 211 222 254 216 207 222 251 266 233 354 271 23 357 5 326 332 334 332 333 342 348 349 350 355 359 358 352 341 335 335 336 341 360
236 234 239 234 195 233 233 278 354 65 221 310 304 289 246 217 215 223 264 46 256 49 348 31 354 335 331 332 336 339 345 351 352 352 354 358 359 357 355 352 352 347 2 7
240 241 242 230 261 277 304 281 247 259 297 306 308 262 245 224 250 23 278 149 111 43 33 352 332 330 330 336 344 348 357 360 357 356 355 357 360 4 4 4 4 359 8 8
235 234 262 260 266 259 238 260 251 298 316 302 254 265 244 234 169 234 234 78 86 80 31 2 349 346 346 350 353 2 10 11 10 10 9 9 11 14 15 16 16 15 14 19
219 235 239 261 282 282 281 270 272 293 301 292 309 265 332 293 252 168 154 95 95 74 29 0 359 351 351 356 1 11 16 18 19 21 20 21 20 19 19 21 19 17 14 14
Wind_Speed_850mb
56 55 57 62 65 63 50 21 5 36 12 4 5 3 8 12 15 19 8 13 14 16 15 23 27 26 23 22 31 28 17 13 30 37 34 29 35 43 35 26 34 35 37 41
52 53 52 55 55 55 52 25 11 21 22 4 7 7 5 7 16 15 10 8 8 10 16 15 21 20 13 30 28 21 21 16 26 39 36 35 33 51 45 46 32 46 40 41
48 50 50 49 47 40 30 16 8 11 23 16 10 11 4 6 11 4 11 15 12 16 20 20 18 22 20 21 38 29 17 30 36 36 46 42 39 42 49 46 32 51 42 59
48 48 47 44 40 34 19 13 8 6 7 8 11 7 5 9 5 5 12 8 9 15 13 25 31 22 33 42 35 40 11 37 37 48 50 41 37 40 48 47 56 55 55 52
44 45 46 41 38 30 14 10 11 8 14 7 11 2 4 10 5 9 10 11 9 18 26 29 40 37 31 27 22 27 29 32 29 50 45 46 48 47 47 47 51 39 51 54
41 40 40 38 35 27 11 9 9 7 1 4 9 5 5 7 14 12 18 20 24 29 30 27 34 42 49 49 40 38 37 34 34 52 37 44 44 44 48 53 46 49 46 54
35 35 36 35 31 24 12 8 6 10 8 6 9 8 14 18 16 24 30 28 29 18 22 42 47 57 59 57 52 54 45 43 33 33 37 46 40 47 45 54 45 44 45 53
29 29 33 32 28 22 14 10 7 9 13 12 13 4 12 23 24 27 32 33 24 21 37 23 17 17 25 29 36 32 35 36 24 23 30 44 60 45 18 32 34 16 30 25
26 25 24 24 25 25 13 10 7 8 17 5 4 13 18 15 17 20 24 18 24 15 19 13 18 21 25 12 12 12 8 14 20 19 15 17 14 20 39 18 23 24 34 23
24 19 18 15 16 21 14 10 14 9 17 13 7 16 13 13 15 14 27 11 8 7 11 15 21 22 14 14 17 20 20 21 25 24 24 9 11 29 35 11 8 29 37 32
22 19 17 15 15 19 12 15 17 9 15 33 31 19 23 21 17 13 11 16 12 10 7 8 12 12 13 15 24 27 31 21 25 19 25 24 9 12 4 23 44 43 46 47
20 17 17 15 18 19 15 15 23 25 27 43 50 55 57 52 44 34 16 16 10 6 9 7 6 14 15 26 27 21 17 8 16 15 21 47 45 31 37 38 47 45 45 42
22 21 21 17 20 21 20 23 24 28 27 58 21 16 12 23 37 39 32 22 15 8 11 11 7 14 15 17 20 28 30 34 21 31 28 36 60 46 33 25 41 44 45 50
23 20 18 18 18 14 18 20 22 19 16 14 5 7 20 19 23 32 52 35 11 14 17 12 9 10 15 15 22 28 35 37 31 40 44 44 36 46 54 56 57 48 51 53
16 16 18 21 17 22 26 26 28 27 19 15 35 44 8 2 19 31 37 44 40 31 17 10 11 21 18 27 27 23 22 21 13 23 52 51 59 65 71 67 49 38 33 40
18 19 18 17 19 25 21 11 6 3 16 11 9 18 13 8 14 23 31 34 35 34 12 14 14 29 13 8 16 31 18 27 40 25 45 60 59 54 32 40 44 35 36 45
23 23 23 26 28 21 15 10 3 4 9 8 14 10 5 11 12 16 21 28 24 23 13 16 28 18 15 7 23 33 36 38 43 35 35 31 22 29 37 36 32 41 46 45
23 26 28 29 28 29 33 30 37 30 17 10 7 9 11 3 9 9 12 12 22 17 13 8 12 8 12 8 15 39 38 40 32 31 34 34 33 31 32 31 37 41 42 44
26 31 30 25 13 14 10 23 26 33 24 7 10 8 10 6 14 13 8 15 10 13 11 9 5 5 8 10 33 41 41 32 37 43 39 35 34 33 33 32 35 43 47 51
27 17 6 6 9 15 13 10 9 22 18 15 13 27 19 18 12 8 6 11 6 5 8 7 5 1 14 22 32 38 39 39 40 42 45 46 41 36 33 28 33 46 51 60
8 4 4 9 15 5 6 9 13 14 9 15 13 21 17 10 9 6 5 6 1 5 5 4 2 2 11 33 37 36 34 34 38 40 43 41 36 36 34 36 35 47 53 57
10 11 19 11 8 11 9 7 11 8 7 12 8 11 16 11 10 10 9 5 5 3 6 3 4 3 31 37 41 40 38 38 37 37 38 37 32 28 29 33 37 38 45 46
10 6 7 8 10 9 11 12 8 8 8 6 7 7 12 13 13 11 6 6 2 5 2 5 6 29 35 38 40 43 43 39 34 33 32 32 30 28 27 31 32 31 37 38
7 8 8 10 10 11 9 10 6 4 4 9 12 14 8 11 10 5 7 0 5 4 5 8 13 34 36 40 39 40 40 34 32 30 30 32 35 34 32 33 29 33 35 41
7 7 8 11 16 12 12 14 5 4 12 13 18 12 11 8 6 1 5 4 4 4 7 9 25 33 33 37 39 36 29 32 33 31 29 31 34 35 35 34 32 33 35 39
7 11 11 18 16 18 7 12 9 7 14 18 10 8 6 5 3 6 1 4 5 3 7 19 25 27 30 34 33 24 25 31 32 31 30 30 32 35 37 37 38 34 36 40
9 14 23 27 25 23 17 10 11 8 14 8 7 6 3 2 4 4 3 6 11 11 13 21 24 25 30 33 24 20 23 30 32 31 32 32 33 34 38 41 41 36 34 34
Wind_Direction_850mb
344 349 353 351 350 354 6 1 302 346 9 235 9 13 357 336 356 2 341 301 309 303 310 291 280 273 268 20 342 312 306 292 278 267 270 271 283 273 256 248 256 249 258 264
343 346 354 354 354 358 356 340 317 350 23 44 44 359 324 6 1 18 8 311 12 351 298 295 269 279 302 348 333 355 337 268 289 275 248 243 244 248 253 255 264 257 259 263
341 345 351 354 355 2 2 337 329 21 48 51 0 358 18 353 23 61 349 314 293 308 283 266 280 290 290 327 315 332 293 261 255 263 275 312 301 282 261 250 236 243 241 262
339 343 348 354 356 6 15 358 38 10 341 51 353 303 329 322 334 340 318 277 257 318 289 304 279 293 314 299 279 279 261 275 277 272 275 279 284 295 301 293 256 251 254 249
336 339 343 351 357 11 33 357 344 324 291 296 301 139 86 327 348 304 308 261 295 295 287 284 290 292 286 284 289 273 274 270 287 277 278 278 275 258 242 255 280 286 283 268
334 336 340 349 359 19 39 14 337 309 221 287 292 40 25 324 316 261 250 294 301 293 298 300 290 282 273 266 272 272 272 269 265 269 282 281 261 255 250 254 240 237 249 261
330 332 337 346 0 18 33 15 349 294 305 273 318 300 297 295 281 273 283 283 278 299 298 302 283 270 264 260 260 253 257 261 269 272 283 265 273 272 271 256 263 273 251 250
326 329 333 341 350 8 26 13 5 310 290 314 288 259 284 291 281 259 271 285 287 290 295 286 281 275 248 248 249 245 232 248 268 258 254 268 278 293 333 302 276 26 359 357
319 325 333 341 348 351 22 349 0 308 303 85 314 295 292 290 303 283 256 270 293 276 275 257 284 308 310 283 293 250 309 270 262 259 260 251 43 344 324 327 276 18 349 331
310 316 323 332 334 337 348 312 357 315 282 283 234 283 315 298 286 273 280 311 294 241 252 269 279 291 340 281 299 318 300 295 279 277 277 276 343 3 342 259 342 320 309 295
308 307 303 316 315 317 312 290 328 301 280 284 267 259 263 272 256 279 2 286 189 235 282 287 310 287 325 298 295 290 289 290 288 303 293 280 209 298 345 295 305 299 297 300
301 304 309 311 304 311 308 291 272 285 255 273 281 273 262 254 252 269 262 292 303 336 251 247 299 276 290 290 287 294 286 268 292 284 296 305 297 273 284 286 286 295 297 297
295 293 285 276 282 287 287 282 307 308 296 304 277 275 286 233 237 232 238 239 231 239 290 304 270 259 282 274 296 308 300 308 294 291 276 301 308 300 290 305 305 297 291 292
294 298 299 292 285 284 275 285 284 278 288 283 304 282 288 284 241 230 223 232 242 271 270 268 257 261 285 280 293 291 290 303 285 285 279 299 301 308 315 315 307 296 292 292
292 299 295 291 273 282 286 286 282 261 236 303 299 303 274 253 213 225 223 228 238 252 250 242 258 265 271 266 270 274 292 303 293 286 313 305 299 306 305 305 304 305 301 299
290 284 284 274 280 294 309 293 270 173 189 275 293 320 285 235 224 226 223 222 227 227 223 239 249 249 266 275 276 292 325 316 313 295 300 299 293 296 310 304 308 302 302 301
280 282 279 282 285 280 246 300 206 241 276 271 288 278 215 266 241 232 223 214 213 217 228 236 249 250 209 262 276 318 324 307 294 302 305 315 315 306 311 312 321 312 302 298
295 291 290 286 279 272 265 260 255 258 258 247 273 279 259 203 260 277 198 194 200 221 237 248 243 223 207 260 314 308 307 309 307 310 319 311 321 323 324 325 324 322 317 314
300 302 300 291 254 240 243 239 243 224 213 242 215 285 330 344 278 287 231 182 209 210 217 225 242 185 209 263 294 300 305 300 300 311 311 317 318 320 325 325 331 330 328 327
315 316 276 247 217 239 255 212 217 195 210 228 250 263 263 306 343 283 282 199 237 232 192 180 230 1 279 309 312 305 310 312 314 315 323 329 324 318 314 311 329 333 335 338
319 265 256 301 294 302 263 235 203 179 219 212 233 246 263 271 253 285 271 305 264 252 91 270 302 152 307 327 327 332 334 335 337 335 333 326 316 308 304 312 312 324 332 337
261 279 282 273 233 227 244 216 173 220 252 172 212 225 221 248 228 242 227 245 218 355 295 336 340 11 328 327 332 330 336 338 344 345 344 338 330 319 306 314 319 327 331 340
284 241 241 207 198 235 233 207 204 198 187 211 222 254 216 207 222 251 266 233 354 271 23 357 5 326 332 334 332 333 342 348 349 350 355 359 358 352 341 335 335 336 341 360
236 234 239 234 195 233 233 278 354 65 221 310 304 289 246 217 215 223 264 46 256 49 348 31 354 335 331 332 336 339 345 351 352 352 354 358 359 357 355 352 352 347 2 7
240 241 242 230 261 277 304 281 247 259 297 306 308 262 245 224 250 23 278 149 111 43 33 352 332 330 330 336 344 348 357 360 357 356 355 357 360 4 4 4 4 359 8 8
235 234 262 260 266 259 238 260 251 298 316 302 254 265 244 234 169 234 234 78 86 80 31 2 349 346 346 350 353 2 10 11 10 10 9 9 11 14 15 16 16 15 14 19
219 235 239 261 282 282 281 270 272 293 301 292 309 265 332 293 252 168 154 95 95 74 29 0 359 351 351 356 1 11 16 18 19 21 20 21 20 19 19 21 19 17 14 14